Location: ???? ??
(36.0534°N, 43.5630°E)
Time: 11:58:44
(UTC+00:00)

H-2A R/B - Pass Details

Date: 18 September 2019
Orbit: 734 x 836 km, 98.3° (Epoch: 16 October)

Event Time Altitude Azimuth Distance (km) Brightness Sun altitude
Exits shadow 17:23:44 75° 237° (WSW) 769 1.9 -27.1°
Maximum altitude 17:23:54 75° 258° (WSW) 766 2.0 -27.2°
Drops below altitude 10° 17:28:53 10° 344° (NNW) 2,273 4.9 -28.1°
Sets 17:31:12 0° 346° (NNW) 3,214 5.8 -28.5°
